User: anonymous   Login
Location: Unspecified
(0.0000°N, 0.0000°E)
Time: 02:24:27
(UTC+00:00)
Language:

PCSat - Orbit

View from above orbital plane
View from above orbital plane
View from above satellite
View from above satellite

Ground track
Ground track

The orbit data is extracted from the following two-line orbital elements,

1 26931U 01043C   18203.45270696 -.00000037  00000-0  17637-4 0  9991
2 26931  67.0515 138.4134 0007952 269.4502  90.5688 14.30511397877598
Epoch (UTC): 22 July 2018 10:51:53
Eccentricity: 0.0007952
inclination: 67.0515°
perigee height: 784 km
apogee height: 796 km
right ascension of ascending node: 138.4134°
argument of perigee: 269.4502°
revolutions per day: 14.30511397
mean anomaly at epoch: 90.5688°
orbit number at epoch: 87759

The dashed part of the orbit path shows where the satellite is in the earth's shadow,  

DLR